Вернуться в каталог

STARLINK-11451

АктивенСвязьVLEO
NORAD 62561·PAYLOAD·🇺🇸 United States

Запущен Jan 10, 2025 с Cape Canaveral Space Force Station

Loading…

Ближайшие Пролёты (ближайшие 24 часа)

TLE

СвежийSource: CelesTrak SupGP

Эпоха: Sep 15, 2026, 03:38 UTC

1 62561C 25006H   26258.15187500 -.00018993  00000+0 -14740-3 0  2581
2 62561  43.0008  77.6618 0001786 272.9040  38.9222 15.70865289    16

Отслеживайте STARLINK-11451 в реальном времени с AllMySat

Download on the App Store